Provo, UT

6:46 AM MST on November 18, 2019 (GMT -0700)
Provo Municipal

Weather History for KPVU - September, 2019

Change the Weather History Date:

Thursday, September 12, 2019

  Actual Average Record
Temperature  
Mean Temperature 56 °F -  
Max Temperature 69 °F 76 °F 96 °F (1990)
Min Temperature 44 °F 49 °F 39 °F (1982)
Degree Days  
Heating Degree Days 8    
Growing Degree Days 6 (Base 50)    
Moisture  
Dew Point 43 °F    
Average Humidity 65    
Maximum Humidity 93    
Minimum Humidity 33    
Precipitation  
Precipitation 0.00 in - - ()
Sea Level Pressure  
Sea Level Pressure 30.29 in    
Wind  
Wind Speed 4 mph (South)    
Max Wind Speed 8 mph    
Max Gust Speed -    
Visibility 10 miles    
Events      
Averages and records for this station are not official NWS values.
T = Trace of Precipitation, MM = Missing Value Source: NWS Daily Summary

Daily Weather History Graph

Daily Weather History Graph

Search for Another Location

Airport or City:

Astronomy

Sep. 12, 2019 Rise Set
Actual Time 7:04 AM MDT 7:40 PM MDT
Civil Twilight 6:37 AM MDT 8:08 PM MDT
Nautical Twilight 6:05 AM MDT 8:40 PM MDT
Astronomical Twilight 5:31 AM MDT 9:13 PM MDT
Moon 7:27 PM MDT (9/12) 5:27 AM MDT (9/12)
Length of Visible Light 13h 30m
Length of Day
12h 36m
Waxing Gibbous, 98% of the Moon is Illuminated
Sep 12
Waxing Gibbous
Sep 13
Full
Sep 21
Last Quarter
Sep 28
New
Oct 5
First Quarter

Hourly Weather History & Observations

Time (MDT) Temp. Windchill Dew Point Humidity Pressure Visibility Wind Dir Wind Speed Gust Speed Precip Events Conditions
12:56 AM 46.0 °F 43.9 °F 44.1 °F 93% 30.27 in 10.0 mi ESE 4.6 mph - N/A   Clear
1:56 AM 46.9 °F - 43.0 °F 86% 30.27 in 10.0 mi SE 4.6 mph - N/A   Clear
2:56 AM 46.9 °F - 43.0 °F 86% 30.29 in 10.0 mi Calm Calm - N/A   Clear
3:56 AM 48.9 °F - 44.1 °F 83% 30.31 in 10.0 mi Calm Calm - N/A   Clear
4:56 AM 44.1 °F 42.5 °F 42.1 °F 93% 30.30 in 10.0 mi ENE 3.5 mph - N/A   Clear
5:56 AM 44.1 °F 42.5 °F 41.0 °F 89% 30.31 in 10.0 mi East 3.5 mph - N/A   Clear
6:56 AM 46.0 °F 42.5 °F 42.1 °F 86% 30.33 in 10.0 mi SW 6.9 mph - N/A   Clear
7:56 AM 48.0 °F - 42.1 °F 80% 30.35 in 10.0 mi SSW 5.8 mph - N/A   Clear
8:56 AM 50.0 °F - 45.0 °F 83% 30.37 in 10.0 mi East 5.8 mph - N/A   Clear
9:56 AM 55.9 °F - 45.0 °F 67% 30.37 in 10.0 mi South 6.9 mph - N/A   Partly Cloudy
10:56 AM 60.1 °F - 44.1 °F 55% 30.36 in 10.0 mi South 6.9 mph - N/A   Partly Cloudy
11:56 AM 60.1 °F - 46.9 °F 62% 30.36 in 10.0 mi SW 5.8 mph - N/A   Clear
12:56 PM 63.0 °F - 42.1 °F 46% 30.34 in 10.0 mi WSW 5.8 mph - N/A   Partly Cloudy
1:56 PM 66.0 °F - 39.0 °F 37% 30.31 in 10.0 mi WSW 5.8 mph - N/A   Partly Cloudy
2:56 PM 66.9 °F - 39.0 °F 36% 30.29 in 10.0 mi Variable 5.8 mph - N/A   Partly Cloudy
3:56 PM 68.0 °F - 37.9 °F 33% 30.25 in 10.0 mi West 8.1 mph - N/A   Partly Cloudy
4:56 PM 69.1 °F - 39.9 °F 35% 30.25 in 10.0 mi WSW 4.6 mph - N/A   Partly Cloudy
5:56 PM 69.1 °F - 39.9 °F 35% 30.24 in 10.0 mi WSW 3.5 mph - N/A   Partly Cloudy
6:56 PM 68.0 °F - 39.0 °F 35% 30.24 in 10.0 mi Calm Calm - N/A   Partly Cloudy
7:56 PM 63.0 °F - 46.9 °F 56% 30.25 in 10.0 mi Calm Calm - N/A   Clear
8:56 PM 57.9 °F - 46.9 °F 67% 30.26 in 10.0 mi East 3.5 mph - N/A   Clear
9:56 PM 57.0 °F - 48.0 °F 72% 30.25 in 10.0 mi South 6.9 mph - N/A   Clear
10:56 PM 54.0 °F - 46.0 °F 75% 30.25 in 10.0 mi SSE 5.8 mph - N/A   Clear
11:56 PM 54.0 °F - 46.9 °F 77% 30.24 in 10.0 mi Calm Calm - N/A   Clear